Time,TemperatureF,DewpointF,PressureIn,WindDirection,WindDirectionDegrees,WindSpeedMPH,WindSpeedGustMPH,Humidity,HourlyPrecipIn,Conditions,Clouds,dailyrainin,SoftwareType,DateUTC
2013-09-17 00:00:00,49.1,41.2,30.28,SE,128,3.0,3.0,74,0.00,,,0.00,Wunderground v.1.15,2013-09-17 05:00:00,
2013-09-17 00:30:00,48.9,41.0,30.28,ESE,123,3.0,3.0,74,0.00,,,0.00,Wunderground v.1.15,2013-09-17 05:30:00,
2013-09-17 01:00:00,48.0,41.1,30.29,ESE,123,2.0,2.0,77,0.00,,,0.00,Wunderground v.1.15,2013-09-17 06:00:00,
2013-09-17 01:30:00,48.3,41.1,30.29,ESE,123,2.0,2.0,76,0.00,,,0.00,Wunderground v.1.15,2013-09-17 06:30:00,
2013-09-17 02:00:00,48.0,41.1,30.29,ESE,123,0.0,2.0,77,0.00,,,0.00,Wunderground v.1.15,2013-09-17 07:00:00,
2013-09-17 02:30:00,47.4,41.2,30.28,ESE,121,3.0,3.0,79,0.00,,,0.00,Wunderground v.1.15,2013-09-17 07:30:00,
2013-09-17 03:00:00,46.1,41.2,30.27,ESE,119,1.0,1.0,83,0.00,,,0.00,Wunderground v.1.15,2013-09-17 08:00:00,
2013-09-17 03:30:00,45.8,41.5,30.28,ESE,119,1.0,1.0,85,0.00,,,0.00,Wunderground v.1.15,2013-09-17 08:30:00,
2013-09-17 04:00:00,47.0,42.4,30.27,ESE,121,4.0,4.0,84,0.00,,,0.00,Wunderground v.1.15,2013-09-17 09:00:00,
2013-09-17 04:30:00,46.5,42.5,30.27,SE,125,1.0,1.0,86,0.00,,,0.00,Wunderground v.1.15,2013-09-17 09:30:00,
2013-09-17 05:00:00,46.0,42.6,30.27,SE,125,0.0,0.0,88,0.00,,,0.00,Wunderground v.1.15,2013-09-17 10:00:00,
2013-09-17 05:30:00,45.7,42.9,30.27,SE,125,1.0,2.0,90,0.00,,,0.00,Wunderground v.1.15,2013-09-17 10:30:00,
2013-09-17 06:00:00,46.1,43.0,30.27,SE,126,1.0,1.0,89,0.00,,,0.00,Wunderground v.1.15,2013-09-17 11:00:00,
2013-09-17 06:30:00,45.7,42.9,30.27,SE,124,1.0,1.0,90,0.00,,,0.00,Wunderground v.1.15,2013-09-17 11:30:00,
2013-09-17 07:00:00,45.5,43.0,30.27,SSE,167,0.0,0.0,91,0.00,,,0.00,Wunderground v.1.15,2013-09-17 12:00:00,
2013-09-17 07:30:00,45.5,42.4,30.27,ESE,123,3.0,3.0,89,0.00,,,0.00,Wunderground v.1.15,2013-09-17 12:30:00,
2013-09-17 08:00:00,47.6,43.6,30.26,ESE,111,3.0,4.0,86,0.00,,,0.00,Wunderground v.1.15,2013-09-17 13:00:00,
2013-09-17 08:30:00,49.9,44.0,30.24,ESE,114,3.0,3.0,80,0.00,,,0.00,Wunderground v.1.15,2013-09-17 13:30:00,
2013-09-17 09:00:00,51.7,43.7,30.23,ESE,111,4.0,5.0,74,0.00,,,0.00,Wunderground v.1.15,2013-09-17 14:00:00,
2013-09-17 09:30:00,54.2,42.7,30.21,SE,128,6.0,7.0,65,0.00,,,0.00,Wunderground v.1.15,2013-09-17 14:30:00,
2013-09-17 10:00:00,56.3,43.0,30.20,ESE,110,6.0,6.0,61,0.00,,,0.00,Wunderground v.1.15,2013-09-17 15:00:00,
2013-09-17 11:00:00,61.3,45.0,30.19,SE,140,5.0,7.0,55,0.00,,,0.00,Wunderground v.1.15,2013-09-17 16:00:00,
2013-09-17 11:30:00,61.6,44.3,30.19,SSE,163,8.0,9.0,53,0.00,,,0.00,Wunderground v.1.15,2013-09-17 16:30:00,
2013-09-17 12:00:00,62.4,45.0,30.17,SE,145,6.0,6.0,53,0.00,,,0.00,Wunderground v.1.15,2013-09-17 17:00:00,
2013-09-17 12:30:00,63.1,45.2,30.17,SE,138,7.0,13.0,52,0.00,,,0.00,Wunderground v.1.15,2013-09-17 17:30:00,
2013-09-17 13:00:00,63.7,44.7,30.17,SSE,163,7.0,15.0,50,0.00,,,0.00,Wunderground v.1.15,2013-09-17 18:00:00,
2013-09-17 13:30:00,64.2,45.7,30.15,SE,129,7.0,7.0,51,0.00,,,0.00,Wunderground v.1.15,2013-09-17 18:30:00,
2013-09-17 14:00:00,64.7,46.1,30.14,South,181,7.0,7.0,51,0.00,,,0.00,Wunderground v.1.15,2013-09-17 19:00:00,
2013-09-17 14:30:00,63.4,47.4,30.12,SE,124,8.0,8.0,56,0.00,,,0.00,Wunderground v.1.15,2013-09-17 19:30:00,
2013-09-17 15:00:00,63.4,48.4,30.11,SE,126,5.0,5.0,58,0.00,,,0.00,Wunderground v.1.15,2013-09-17 20:00:00,
2013-09-17 15:30:00,63.9,49.7,30.10,ESE,122,4.0,6.0,60,0.00,,,0.00,Wunderground v.1.15,2013-09-17 20:30:00,
2013-09-17 16:00:00,63.9,50.2,30.09,SE,142,7.0,12.0,61,0.00,,,0.00,Wunderground v.1.15,2013-09-17 21:00:00,
2013-09-17 16:30:00,62.7,49.9,30.07,SE,132,8.0,8.0,63,0.00,,,0.00,Wunderground v.1.15,2013-09-17 21:30:00,
2013-09-17 17:00:00,62.3,50.8,30.07,SSE,154,3.0,3.0,66,0.00,,,0.00,Wunderground v.1.15,2013-09-17 22:00:00,
2013-09-17 17:30:00,62.3,51.6,30.07,SE,141,3.0,5.0,68,0.00,,,0.00,Wunderground v.1.15,2013-09-17 22:30:00,
2013-09-17 18:00:00,61.8,51.9,30.06,SSE,157,5.0,5.0,70,0.00,,,0.00,Wunderground v.1.15,2013-09-17 23:00:00,
2013-09-17 18:30:00,61.2,52.1,30.05,SE,144,6.0,10.0,72,0.00,,,0.00,Wunderground v.1.15,2013-09-17 23:30:00,
2013-09-17 19:00:00,60.9,52.6,30.04,ESE,123,4.0,4.0,74,0.00,,,0.00,Wunderground v.1.15,2013-09-18 00:00:00,
2013-09-17 19:30:00,60.4,52.8,30.04,SE,135,4.0,4.0,76,0.00,,,0.00,Wunderground v.1.15,2013-09-18 00:30:00,
2013-09-17 20:00:00,60.2,53.7,30.03,East,101,6.0,6.0,79,0.00,,,0.00,Wunderground v.1.15,2013-09-18 01:00:00,
2013-09-17 20:30:00,59.3,54.1,30.02,SE,140,4.0,4.0,83,0.00,,,0.00,Wunderground v.1.15,2013-09-18 01:30:00,
2013-09-17 21:00:00,58.3,55.7,30.02,ESE,112,4.0,5.0,91,0.00,,,0.00,Wunderground v.1.15,2013-09-18 02:00:00,
2013-09-17 21:30:00,57.8,56.1,30.01,ESE,119,3.0,3.0,94,0.00,,,0.00,Wunderground v.1.15,2013-09-18 02:30:00,
2013-09-17 22:00:00,57.8,56.4,30.01,ESE,112,2.0,2.0,95,0.00,,,0.00,Wunderground v.1.15,2013-09-18 03:00:00,
2013-09-17 22:30:00,57.6,56.5,30.00,SE,126,2.0,2.0,96,0.00,,,0.01,Wunderground v.1.15,2013-09-18 03:30:00,
2013-09-17 23:00:00,57.8,56.4,29.99,SE,131,2.0,2.0,95,0.00,,,0.01,Wunderground v.1.15,2013-09-18 04:00:00,
2013-09-17 23:30:00,58.0,56.6,29.99,ESE,123,2.0,2.0,95,0.00,,,0.01,Wunderground v.1.15,2013-09-18 04:30:00,